[[{"header":{"parameterUnit":"m.s-1","parameterCategory":1,"la1":30.2991,"la2":30.254,"lo1":-89.0895,"lo2":-89.0444,"dy":0.0017,"dx":0.0017,"nx":28,"ny":28,"refTime":"2023-11-21T03:00:00:Z","depth":0,"parameterNumber":2,"parameterNumberName":"U-component_of_WINDS"},"data":[0,0,0,0,0,0,0,0,0,0,0,0,0,0,0,0,0,0,0,0,0,0,0,0,0,0,0,0,0,0,0,0,0,0,0,0,0,0,0,0,0,0,0,0,0,0,0,0,0,0,0,0,0,0,0,0,0,0,-0.8358,-0.8359,0,-0.8435,-0.8436,-0.8437,-0.8414,-0.8413,-0.8411,-0.841,-0.849,-0.8494,-0.8498,0,0,0,0,0,0,0,0,0,0,0,0,0,-0.8191,-0.8194,-0.8358,-0.8359,-0.836,-0.8435,-0.8436,-0.8437,-0.8415,-0.8413,-0.8411,-0.8409,-0.8489,-0.8494,-0.8498,0,0,0,0,0,0,0,0,0,0,0,0,0,-0.8265,-0.8195,-0.8358,-0.8358,-0.8358,-0.8435,-0.8436,-0.8438,-0.8415,-0.8413,-0.841,-0.8408,-0.8488,-0.8493,-0.8499,-0.8581,0,0,-0.8515,-0.8518,0,0,0,0,0,0,0,0,-0.8261,-0.8272,-0.8357,-0.8358,-0.8359,-0.8413,-0.8407,-0.8486,-0.8416,-0.8394,-0.841,-0.8407,-0.8467,-0.8474,-0.8494,-0.8584,-0.8588,-0.8516,-0.8519,-0.8521,-0.8523,0,0,0,0,0,0,0,-0.8256,-0.8268,-0.8389,-0.8358,-0.8359,-0.8354,-0.8362,-0.8422,-0.8443,-0.8395,-0.8394,-0.8403,-0.8467,-0.8488,-0.8495,-0.8589,-0.8516,-0.852,-0.8524,-0.8526,-0.875,-0.8752,0,0,0,0,0,0,-0.825,-0.8264,-0.8386,-0.8391,-0.8303,-0.8359,-0.8368,-0.8398,-0.8442,-0.8446,-0.8405,-0.8402,-0.848,-0.8489,-0.8498,-0.8597,-0.8521,-0.8526,-0.853,-0.8747,-0.875,-0.8753,0,0,0,0,0,0,-0.8247,-0.8261,-0.8383,-0.8327,-0.8342,-0.8364,-0.8398,-0.8401,-0.8422,-0.8449,-0.8453,-0.8423,-0.8479,-0.849,-0.856,-0.8599,-0.8529,-0.8534,-0.8744,-0.8748,-0.8752,-0.8795,0,0,0,0,0,0,-0.8242,-0.826,-0.8292,-0.8328,-0.8345,-0.8444,-0.8401,-0.8404,-0.8432,-0.8428,-0.8468,-0.8472,-0.8478,-0.8552,-0.8565,-0.8605,-0.8538,-0.8741,-0.8746,-0.8751,-0.879,-0.88,-0.8808,0,0,0,0,0,-0.8236,-0.8301,-0.8293,-0.8308,-0.8385,-0.8446,-0.8456,-0.8461,-0.8435,-0.8467,-0.8484,-0.8471,-0.8592,-0.8559,-0.8574,-0.8617,-0.8738,-0.8744,-0.875,-0.8786,-0.8798,-0.8808,0,0,0,0,0,0,-0.827,-0.8306,-0.8298,-0.8377,-0.8408,-0.8442,-0.8483,-0.8474,-0.8514,-0.8509,-0.8514,-0.8523,-0.8594,-0.8612,-0.8574,-0.8698,-0.8661,-0.8671,-0.8684,-0.8695,-0.8704,-0.8699,-0.8543,0,0,0,0,0,-0.8286,-0.8333,-0.8362,-0.8429,-0.8445,-0.8461,-0.8488,-0.8488,-0.8522,-0.8535,-0.8558,-0.8591,-0.8636,-0.8666,-0.871,-0.8792,-0.88,-0.8828,-0.8837,-0.8845,-0.8853,-0.8897,-0.891,-0.8773,-0.8773,-0.8773,0,0,-0.8322,-0.8347,-0.8376,-0.8436,-0.8461,-0.8509,-0.8473,-0.8525,-0.8561,-0.8544,-0.8611,-0.8628,-0.8665,-0.8741,-0.8775,-0.8758,-0.8892,-0.8852,-0.8858,-0.8862,-0.8904,-0.8917,-0.8929,-0.8777,-0.8776,-0.8776,0,0,-0.841,-0.8434,-0.8492,-0.8517,-0.8554,-0.8564,-0.8578,-0.8613,-0.8623,-0.869,-0.8678,-0.872,-0.8799,-0.8826,-0.8849,-0.8946,-0.8935,-0.8959,-0.9008,-0.905,-0.9061,-0.9071,-0.9105,-0.9117,-0.8967,-0.8968,-0.8968,0,-0.8449,-0.8521,-0.8523,-0.8576,-0.8603,-0.8588,-0.8647,-0.8671,-0.8721,-0.874,-0.8719,-0.8816,-0.884,-0.8922,-0.8945,-0.8965,-0.8981,-0.8956,-0.9059,-0.9069,-0.9078,-0.9111,-0.9124,-0.897,-0.897,-0.897,-0.897,0,-0.8567,-0.8617,-0.8659,-0.8706,-0.8738,-0.8793,-0.8804,-0.8835,-0.8832,-0.8844,-0.8912,-0.894,-0.8988,-0.9007,-0.9006,-0.9089,-0.9077,-0.9058,-0.9022,-0.9094,-0.9125,-0.9137,-0.8974,-0.8973,-0.8973,-0.8972,0,0,-0.8681,-0.8728,-0.8743,-0.8764,-0.8803,-0.8842,-0.8896,-0.8943,-0.897,-0.9004,-0.905,-0.9115,-0.9097,-0.9125,-0.9126,-0.9163,-0.9237,-0.9139,-0.914,-0.9157,-0.933,-0.9344,-0.9359,-0.9229,-0.9232,-0.9234,-0.9327,0,-0.8773,-0.8869,-0.8872,-0.8959,-0.9005,-0.8991,-0.9038,-0.9067,-0.9079,-0.9119,-0.9133,-0.9179,-0.9152,-0.9168,-0.9204,-0.922,-0.9272,-0.9214,-0.9272,-0.9275,-0.9265,-0.9375,-0.9391,-0.9478,-0.9339,-0.9341,-0.9342,0,-0.8894,-0.8931,-0.9023,-0.9055,-0.9074,-0.9117,-0.9159,-0.9197,-0.923,-0.9236,-0.9265,-0.926,-0.9315,-0.9276,-0.9352,-0.9312,-0.9336,-0.9347,-0.9351,-0.9357,-0.9314,-0.9385,-0.9505,-0.9519,-0.9361,-0.936,-0.9358,0,-0.8969,-0.9042,-0.9106,-0.9124,-0.9162,-0.9193,-0.921,-0.9239,-0.9267,-0.9303,-0.9321,-0.9364,-0.9388,-0.9421,-0.9427,-0.9398,-0.9503,-0.9465,-0.951,-0.951,-0.9534,-0.9533,-0.9661,-0.9548,-0.9548,-0.9548,-0.9548,0,-0.9072,-0.9129,-0.914,-0.918,-0.9243,-0.9244,-0.9307,-0.9322,-0.9348,-0.939,-0.938,-0.9419,-0.9425,-0.9466,-0.9471,-0.9533,-0.9544,-0.955,-0.9551,-0.9552,-0.9551,-0.9569,-0.9563,-0.9551,-0.9551,-0.955,-0.9549,0,-0.9167,-0.9176,-0.9245,-0.9275,-0.9284,-0.9329,-0.9354,-0.9392,-0.9402,-0.9455,-0.9468,-0.9484,-0.9532,-0.9541,-0.9597,-0.96,-0.9674,-0.9669,-0.9664,-0.9663,-0.9708,-0.9704,-0.9852,-0.9872,-0.9746,-0.9747,-0.9748,0,-0.9233,-0.9276,-0.931,-0.9337,-0.9356,-0.94,-0.9427,-0.943,-0.9459,-0.9498,-0.9531,-0.9577,-0.9614,-0.9691,-0.9707,-0.975,-0.9746,-0.9795,-0.9753,-0.9751,-0.9747,-0.9745,-0.9749,-0.9803,-0.9805,-0.9806,-0.9807,0,-0.9349,-0.9351,-0.9391,-0.9432,-0.9465,-0.9497,-0.9528,-0.9551,-0.9558,-0.9591,-0.9639,-0.9668,-0.9724,-0.977,-0.9812,-0.983,-0.982,-0.982,-0.9832,-0.9834,-0.9829,-0.9833,-0.9687,-0.9817,-0.9816,-0.9815,-0.9814,-0.9814,-0.9432,-0.9469,-0.9498,-0.9543,-0.9566,-0.9595,-0.9631,-0.9645,-0.9685,-0.9731,-0.973,-0.9783,-0.9812,-0.9868,-0.9888,-0.9929,-0.9913,-0.9932,-0.9937,-0.9941,-0.9946,-0.9822,-0.9936,-0.9936,-0.9936,-0.9936,-0.9935,0,-0.9548,-0.9565,-0.9606,-0.9649,-0.9683,-0.9669,-0.9702,-0.9732,-0.9778,-0.9806,-0.9843,-0.9897,-0.9941,-0.9961,-1.0004,-1.0033,-1.0029,-1.0044,-1.0042,-1.0047,-0.9957,-0.9942,-1.0046,-1.0046,-1.0046,-1.0046,-1.0046,-1.0046,-0.9612,-0.9674,-0.968,-0.9753,-0.977,-0.9821,-0.9841,-0.9867,-0.989,-0.9951,-0.9987,-0.9999,-1.0023,-1.0068,-1.0107,-1.0111,-1.0128,-1.0146,-1.0148,-1.0064,-1.0053,-1.0042,-1.0028,-1.0149,-1.0149,-1.0234,-1.0235,-1.0235]},{"header":{"parameterUnit":"m.s-1","parameterCategory":1,"la1":30.2991,"la2":30.254,"lo1":-89.0895,"lo2":-89.0444,"dy":0.0017,"dx":0.0017,"nx":28,"ny":28,"refTime":"2023-11-21T03:00:00:Z","depth":0,"parameterNumber":3,"parameterNumberName":"V-component_of_WINDS"},"data":[0,0,0,0,0,0,0,0,0,0,0,0,0,0,0,0,0,0,0,0,0,0,0,0,0,0,0,0,0,0,0,0,0,0,0,0,0,0,0,0,0,0,0,0,0,0,0,0,0,0,0,0,0,0,0,0,0,0,-5.3008,-5.301,0,-5.3127,-5.3128,-5.313,-5.304,-5.3036,-5.3032,-5.3028,-5.3147,-5.3153,-5.316,0,0,0,0,0,0,0,0,0,0,0,0,0,-5.27,-5.2706,-5.3008,-5.301,-5.3011,-5.3127,-5.3128,-5.313,-5.304,-5.3036,-5.3031,-5.3027,-5.3145,-5.3153,-5.3161,0,0,0,0,0,0,0,0,0,0,0,0,0,-5.2828,-5.2708,-5.3008,-5.298,-5.2979,-5.3126,-5.3128,-5.313,-5.3041,-5.3036,-5.303,-5.3024,-5.3142,-5.3152,-5.3162,-5.3342,0,0,-5.3193,-5.3197,0,0,0,0,0,0,0,0,-5.2821,-5.2839,-5.2983,-5.2983,-5.2981,-5.3063,-5.3063,-5.3201,-5.3043,-5.3018,-5.3028,-5.3021,-5.3123,-5.3135,-5.317,-5.3347,-5.3352,-5.3194,-5.32,-5.3204,-5.3207,0,0,0,0,0,0,0,-5.2812,-5.2834,-5.3055,-5.2985,-5.2984,-5.2961,-5.2973,-5.3089,-5.3102,-5.3019,-5.3013,-5.3029,-5.3122,-5.316,-5.3172,-5.3354,-5.3194,-5.3203,-5.3209,-5.3213,-5.3683,-5.369,0,0,0,0,0,0,-5.2806,-5.2827,-5.3051,-5.3059,-5.2885,-5.2971,-5.2984,-5.3042,-5.31,-5.3104,-5.3034,-5.3024,-5.3146,-5.316,-5.3176,-5.3389,-5.3204,-5.3214,-5.322,-5.3677,-5.3685,-5.3692,0,0,0,0,0,0,-5.28,-5.2827,-5.3046,-5.2941,-5.2967,-5.2983,-5.3049,-5.3048,-5.3086,-5.3111,-5.3112,-5.3071,-5.3142,-5.3161,-5.3301,-5.3392,-5.3218,-5.3228,-5.367,-5.3679,-5.3688,-5.3819,0,0,0,0,0,0,-5.2792,-5.2825,-5.2895,-5.2943,-5.2973,-5.3172,-5.3054,-5.3054,-5.3104,-5.3093,-5.3146,-5.3149,-5.3138,-5.3286,-5.3311,-5.3403,-5.3236,-5.3661,-5.3674,-5.3685,-5.3806,-5.3831,-5.3853,0,0,0,0,0,-5.2781,-5.2926,-5.2899,-5.2926,-5.3061,-5.3177,-5.3194,-5.3179,-5.3112,-5.3181,-5.3197,-5.3148,-5.3378,-5.3301,-5.3328,-5.3425,-5.3656,-5.367,-5.3684,-5.3796,-5.3826,-5.3852,0,0,0,0,0,0,-5.2887,-5.2932,-5.2902,-5.3068,-5.312,-5.3162,-5.3249,-5.3213,-5.3283,-5.327,-5.3247,-5.326,-5.3407,-5.343,-5.3343,-5.3601,-5.3506,-5.3526,-5.3581,-5.3611,-5.3634,-5.3625,-5.3244,0,0,0,0,0,-5.293,-5.3022,-5.3056,-5.3199,-5.3226,-5.3233,-5.3283,-5.3268,-5.332,-5.3341,-5.3366,-5.3418,-5.3501,-5.3557,-5.3636,-5.3809,-5.3818,-5.3888,-5.3912,-5.3931,-5.3949,-5.4041,-5.4072,-5.3739,-5.3739,-5.3739,0,0,-5.302,-5.3055,-5.3115,-5.3221,-5.3259,-5.3353,-5.3252,-5.3356,-5.3426,-5.3356,-5.349,-5.3511,-5.3566,-5.3723,-5.3794,-5.3747,-5.4043,-5.3949,-5.3964,-5.3972,-5.4059,-5.4091,-5.4119,-5.3749,-5.3747,-5.3745,0,0,-5.3231,-5.3268,-5.339,-5.3431,-5.349,-5.3493,-5.3523,-5.3571,-5.3582,-5.3716,-5.3665,-5.3747,-5.3892,-5.3933,-5.3974,-5.42,-5.4157,-5.4226,-5.4348,-5.4438,-5.4465,-5.4488,-5.4568,-5.4597,-5.4243,-5.4244,-5.4244,0,-5.3334,-5.3476,-5.3458,-5.3566,-5.3614,-5.3556,-5.3679,-5.3719,-5.38,-5.3834,-5.378,-5.3961,-5.3994,-5.416,-5.4215,-5.4249,-5.4281,-5.422,-5.4462,-5.4485,-5.4507,-5.4583,-5.4613,-5.4252,-5.4251,-5.425,-5.4249,0,-5.3599,-5.3698,-5.379,-5.3871,-5.3929,-5.4044,-5.4043,-5.4104,-5.4083,-5.4092,-5.4228,-5.4266,-5.4351,-5.4389,-5.4369,-5.4552,-5.4521,-5.4466,-5.4369,-5.4547,-5.4618,-5.4647,-5.4263,-5.426,-5.4258,-5.4256,0,0,-5.3881,-5.3951,-5.3985,-5.4021,-5.4081,-5.4156,-5.4268,-5.4352,-5.4405,-5.4462,-5.4555,-5.4679,-5.4628,-5.4673,-5.4658,-5.4737,-5.4913,-5.4671,-5.4672,-5.4715,-5.5115,-5.5157,-5.5191,-5.4885,-5.489,-5.4894,-5.5111,0,-5.4095,-5.4292,-5.4279,-5.4463,-5.4553,-5.4499,-5.4596,-5.4643,-5.4655,-5.4732,-5.4743,-5.4831,-5.4757,-5.4784,-5.4861,-5.4876,-5.4993,-5.486,-5.497,-5.4974,-5.4958,-5.5228,-5.5273,-5.5475,-5.5138,-5.5143,-5.5146,0,-5.4371,-5.4439,-5.4633,-5.4679,-5.4717,-5.4805,-5.488,-5.4955,-5.5007,-5.5009,-5.506,-5.5031,-5.5142,-5.5044,-5.5197,-5.5106,-5.515,-5.5164,-5.5172,-5.5181,-5.5071,-5.5245,-5.5539,-5.5569,-5.519,-5.5187,-5.5184,0,-5.4557,-5.4697,-5.4831,-5.4863,-5.4921,-5.4984,-5.501,-5.5056,-5.5107,-5.5173,-5.5205,-5.5283,-5.5325,-5.5385,-5.5377,-5.5306,-5.5532,-5.5433,-5.5537,-5.5537,-5.5587,-5.5584,-5.5892,-5.5616,-5.5615,-5.5615,-5.5614,0,-5.4797,-5.4918,-5.4915,-5.4998,-5.5131,-5.5114,-5.5246,-5.5265,-5.5306,-5.539,-5.5347,-5.5427,-5.5412,-5.5491,-5.5485,-5.5612,-5.5632,-5.5636,-5.5633,-5.564,-5.5639,-5.5668,-5.5654,-5.5623,-5.5621,-5.5619,-5.5618,0,-5.5027,-5.5031,-5.5173,-5.5216,-5.5229,-5.5325,-5.5361,-5.5439,-5.5446,-5.5553,-5.5577,-5.5588,-5.5679,-5.5677,-5.578,-5.5776,-5.5932,-5.5913,-5.5915,-5.5911,-5.6015,-5.6005,-5.6352,-5.6397,-5.6092,-5.6095,-5.6097,0,-5.518,-5.5272,-5.5325,-5.5379,-5.541,-5.5497,-5.5549,-5.5535,-5.5591,-5.5656,-5.5725,-5.5812,-5.5881,-5.6029,-5.6045,-5.6124,-5.6106,-5.6222,-5.6117,-5.6121,-5.6107,-5.6102,-5.6111,-5.6243,-5.6246,-5.6249,-5.6251,0,-5.5452,-5.5448,-5.5526,-5.5604,-5.5667,-5.5728,-5.5783,-5.583,-5.5822,-5.5886,-5.5979,-5.6033,-5.6138,-5.6225,-5.63,-5.6326,-5.6288,-5.6284,-5.6312,-5.632,-5.6318,-5.632,-5.5971,-5.6276,-5.6274,-5.6272,-5.627,-5.6269,-5.5648,-5.5726,-5.5776,-5.5863,-5.5903,-5.5956,-5.6031,-5.6048,-5.6125,-5.6211,-5.6197,-5.6301,-5.6349,-5.6446,-5.6479,-5.6559,-5.6518,-5.6558,-5.6569,-5.6579,-5.6591,-5.6305,-5.6572,-5.6572,-5.6571,-5.657,-5.657,0,-5.5916,-5.5945,-5.6026,-5.6105,-5.6174,-5.6132,-5.6191,-5.6251,-5.6343,-5.6391,-5.646,-5.6567,-5.665,-5.6673,-5.6754,-5.6813,-5.6798,-5.6835,-5.683,-5.6837,-5.6623,-5.6591,-5.6846,-5.6846,-5.6846,-5.6846,-5.6846,-5.6846,-5.6064,-5.6195,-5.6198,-5.6348,-5.6375,-5.6478,-5.6515,-5.6563,-5.6601,-5.6722,-5.6792,-5.6807,-5.6845,-5.6927,-5.7002,-5.7006,-5.7038,-5.7082,-5.708,-5.6879,-5.6852,-5.6825,-5.6795,-5.7089,-5.7089,-5.7286,-5.7288,-5.729]}]]